| time (UTC) | temp F | wind direction | speed MPH | gust MPH | rain 1hr in | rain 24hr in | rain mn in | humidity % | barometer mb |
| 20260505125004 | 64 | 159 | 1.0 | 5.0 | 0.00 | 0.00 | 0.00 | 60 | 1012.4 |
| 20260505124518 | 64 | 175 | 0.0 | 4.0 | 0.00 | 0.00 | 0.00 | 61 | 1012.5 |
| 20260505124003 | 64 | 221 | 1.0 | 5.0 | 0.00 | 0.00 | 0.00 | 61 | 1012.7 |
| 20260505123505 | 63 | 250 | 1.0 | 6.0 | 0.00 | 0.00 | 0.00 | 63 | 1012.8 |
| 20260505123021 | 63 | 165 | 1.0 | 6.0 | 0.00 | 0.00 | 0.00 | 63 | 1012.8 |
| 20260505122503 | 62 | 213 | 0.0 | 8.0 | 0.00 | 0.00 | 0.00 | 63 | 1012.8 |
| 20260505122007 | 62 | 206 | 0.0 | 8.0 | 0.00 | 0.00 | 0.00 | 65 | 1012.7 |
| 20260505121520 | 61 | 236 | 1.0 | 7.0 | 0.00 | 0.00 | 0.00 | 67 | 1012.6 |
| 20260505121007 | 61 | 244 | 0.0 | 5.0 | 0.00 | 0.00 | 0.00 | 67 | 1012.5 |
| 20260505120504 | 60 | 192 | 0.0 | 6.0 | 0.00 | 0.00 | 0.00 | 68 | 1012.6 |
| 20260505120014 | 59 | 229 | 1.0 | 6.0 | 0.00 | 0.00 | 0.00 | 70 | 1012.7 |
| 20260505115504 | 59 | 219 | 0.0 | 4.0 | 0.00 | 0.00 | 0.00 | 71 | 1012.6 |
| 20260505115006 | 58 | 223 | 0.0 | 3.0 | 0.00 | 0.00 | 0.00 | 72 | 1012.6 |
| 20260505114513 | 58 | 242 | 0.0 | 3.0 | 0.00 | 0.00 | 0.00 | 73 | 1012.5 |
| 20260505114007 | 58 | 242 | 0.0 | 3.0 | 0.00 | 0.00 | 0.00 | 74 | 1012.6 |
| 20260505113507 | 57 | 182 | 0.0 | 1.0 | 0.00 | 0.00 | 0.00 | 74 | 1012.3 |
| 20260505113010 | 56 | 182 | 0.0 | 1.0 | 0.00 | 0.00 | 0.00 | 75 | 1012.2 |
| 20260505112504 | 56 | 182 | 0.0 | 1.0 | 0.00 | 0.00 | 0.00 | 76 | 1012.2 |
| 20260505112008 | 55 | 182 | 0.0 | 1.0 | 0.00 | 0.00 | 0.00 | 77 | 1012.3 |
| 20260505111538 | 55 | 182 | 0.0 | 1.0 | 0.00 | 0.00 | 0.00 | 77 | 1012.2 |
| 20260505111006 | 55 | 182 | 0.0 | 0.0 | 0.00 | 0.00 | 0.00 | 78 | 1012.3 |
| 20260505110507 | 55 | 182 | 0.0 | 1.0 | 0.00 | 0.00 | 0.00 | 78 | 1012.3 |
| 20260505102002 | 53 | 182 | 0.0 | 2.0 | 0.00 | 0.00 | 0.00 | 81 | 1011.7 |
| 20260505101526 | 52 | 172 | 0.0 | 3.0 | 0.00 | 0.00 | 0.00 | 82 | 1011.6 |
| 20260505101008 | 52 | 173 | 0.0 | 3.0 | 0.00 | 0.00 | 0.00 | 82 | 1011.6 |
| 20260505100508 | 52 | 175 | 0.0 | 0.0 | 0.00 | 0.00 | 0.00 | 83 | 1011.6 |
| 20260505100018 | 52 | 175 | 0.0 | 0.0 | 0.00 | 0.00 | 0.00 | 83 | 1011.5 |
| 20260505095505 | 52 | 175 | 0.0 | 0.0 | 0.00 | 0.00 | 0.00 | 83 | 1011.6 |
| 20260505095010 | 52 | 175 | 0.0 | 0.0 | 0.00 | 0.00 | 0.00 | 83 | 1011.6 |
| 20260505094513 | 52 | 175 | 0.0 | 0.0 | 0.00 | 0.00 | 0.00 | 82 | 1011.6 |
| 20260505094005 | 52 | 175 | 0.0 | 1.0 | 0.00 | 0.00 | 0.00 | 82 | 1011.5 |
| 20260505093504 | 52 | 175 | 0.0 | 1.0 | 0.00 | 0.00 | 0.00 | 82 | 1011.5 |
| 20260505093015 | 52 | 175 | 0.0 | 1.0 | 0.00 | 0.00 | 0.00 | 82 | 1011.5 |
| 20260505092504 | 53 | 175 | 0.0 | 1.0 | 0.00 | 0.00 | 0.00 | 82 | 1011.4 |
| 20260505092009 | 53 | 175 | 0.0 | 0.0 | 0.00 | 0.00 | 0.00 | 82 | 1011.4 |
| 20260505091522 | 53 | 175 | 0.0 | 0.0 | 0.00 | 0.00 | 0.00 | 82 | 1011.3 |
| 20260505091007 | 53 | 175 | 0.0 | 0.0 | 0.00 | 0.00 | 0.00 | 83 | 1011.4 |
| 20260505090504 | 53 | 175 | 0.0 | 0.0 | 0.00 | 0.00 | 0.00 | 83 | 1011.3 |
| 20260505090029 | 53 | 175 | 0.0 | 0.0 | 0.00 | 0.00 | 0.00 | 83 | 1011.4 |
| 20260505085511 | 53 | 175 | 0.0 | 0.0 | 0.00 | 0.00 | 0.00 | 82 | 1011.3 |
| 20260505085006 | 53 | 175 | 0.0 | 0.0 | 0.00 | 0.00 | 0.00 | 82 | 1011.4 |
| 20260505084529 | 53 | 175 | 0.0 | 0.0 | 0.00 | 0.00 | 0.00 | 83 | 1011.4 |
| 20260505084007 | 53 | 175 | 0.0 | 0.0 | 0.00 | 0.00 | 0.00 | 83 | 1011.3 |
| 20260505083507 | 52 | 175 | 0.0 | 4.0 | 0.00 | 0.00 | 0.00 | 83 | 1011.4 |
| 20260505083015 | 53 | 175 | 0.0 | 4.0 | 0.00 | 0.00 | 0.00 | 83 | 1011.4 |
| 20260505082503 | 53 | 198 | 0.0 | 0.0 | 0.00 | 0.00 | 0.00 | 83 | 1011.4 |
| 20260505082003 | 52 | 198 | 0.0 | 0.0 | 0.00 | 0.00 | 0.00 | 83 | 1011.3 |
| 20260505081517 | 52 | 198 | 0.0 | 0.0 | 0.00 | 0.00 | 0.00 | 83 | 1011.2 |
| 20260505081007 | 53 | 198 | 0.0 | 0.0 | 0.00 | 0.00 | 0.00 | 83 | 1011.2 |
| 20260505080505 | 53 | 198 | 0.0 | 2.0 | 0.00 | 0.00 | 0.00 | 83 | 1011.2 |
| 20260505080024 | 53 | 198 | 0.0 | 2.0 | 0.00 | 0.00 | 0.00 | 83 | 1011.2 |
| 20260505075507 | 53 | 199 | 0.0 | 1.0 | 0.00 | 0.00 | 0.00 | 83 | 1011.1 |
| 20260505075010 | 53 | 199 | 0.0 | 1.0 | 0.00 | 0.00 | 0.00 | 83 | 1011.2 |
| 20260505074509 | 53 | 199 | 0.0 | 0.0 | 0.00 | 0.00 | 0.00 | 82 | 1011.1 |
| 20260505074003 | 53 | 198 | 0.0 | 0.0 | 0.00 | 0.00 | 0.00 | 81 | 1011.0 |
| 20260505073503 | 53 | 198 | 0.0 | 0.0 | 0.00 | 0.00 | 0.00 | 81 | 1010.9 |
| 20260505073012 | 53 | 198 | 0.0 | 0.0 | 0.00 | 0.00 | 0.00 | 81 | 1010.8 |
| 20260505072506 | 53 | 198 | 0.0 | 0.0 | 0.00 | 0.00 | 0.00 | 81 | 1010.8 |
| 20260505072003 | 53 | 198 | 0.0 | 0.0 | 0.00 | 0.00 | 0.00 | 81 | 1010.8 |
| 20260505071518 | 54 | 198 | 0.0 | 0.0 | 0.00 | 0.00 | 0.00 | 80 | 1010.8 |
| 20260505071004 | 54 | 198 | 0.0 | 0.0 | 0.00 | 0.00 | 0.00 | 80 | 1010.8 |
| 20260505070504 | 54 | 198 | 0.0 | 0.0 | 0.00 | 0.00 | 0.00 | 80 | 1010.9 |
| 20260505070024 | 54 | 198 | 0.0 | 0.0 | 0.00 | 0.00 | 0.00 | 80 | 1010.9 |
| 20260505065507 | 54 | 198 | 0.0 | 0.0 | 0.00 | 0.00 | 0.00 | 80 | 1010.8 |
| 20260505065003 | 54 | 198 | 0.0 | 0.0 | 0.00 | 0.00 | 0.00 | 79 | 1010.8 |
| 20260505064519 | 55 | 198 | 0.0 | 0.0 | 0.00 | 0.00 | 0.00 | 79 | 1010.9 |
| 20260505064008 | 55 | 198 | 0.0 | 0.0 | 0.00 | 0.00 | 0.00 | 79 | 1010.9 |
| 20260505063503 | 55 | 198 | 0.0 | 0.0 | 0.00 | 0.00 | 0.00 | 78 | 1010.8 |
| 20260505063014 | 55 | 198 | 0.0 | 0.0 | 0.00 | 0.00 | 0.00 | 78 | 1010.8 |
| 20260505062503 | 55 | 198 | 0.0 | 0.0 | 0.00 | 0.00 | 0.00 | 78 | 1010.8 |
| 20260505062003 | 55 | 198 | 0.0 | 0.0 | 0.00 | 0.00 | 0.00 | 78 | 1010.8 |
| 20260505061512 | 56 | 198 | 0.0 | 0.0 | 0.00 | 0.00 | 0.00 | 78 | 1010.8 |
| 20260505061004 | 56 | 198 | 0.0 | 0.0 | 0.00 | 0.00 | 0.00 | 78 | 1010.8 |
| 20260505060504 | 56 | 198 | 0.0 | 0.0 | 0.00 | 0.00 | 0.00 | 77 | 1010.9 |
| 20260505060008 | 56 | 198 | 0.0 | 0.0 | 0.00 | 0.00 | 0.00 | 78 | 1010.9 |
| 20260505055505 | 56 | 198 | 0.0 | 0.0 | 0.00 | 0.00 | 0.00 | 77 | 1010.8 |
| 20260505055007 | 56 | 198 | 0.0 | 0.0 | 0.00 | 0.00 | 0.00 | 77 | 1010.9 |
| 20260505054524 | 56 | 198 | 0.0 | 0.0 | 0.00 | 0.00 | 0.00 | 76 | 1010.8 |
| 20260505054004 | 56 | 198 | 0.0 | 0.0 | 0.00 | 0.00 | 0.00 | 76 | 1010.8 |
| 20260505053507 | 57 | 198 | 0.0 | 0.0 | 0.00 | 0.00 | 0.00 | 76 | 1010.8 |
| 20260505053027 | 57 | 198 | 0.0 | 0.0 | 0.00 | 0.00 | 0.00 | 76 | 1010.9 |
| 20260505052504 | 57 | 198 | 0.0 | 0.0 | 0.00 | 0.00 | 0.00 | 75 | 1010.8 |
| 20260505052007 | 57 | 198 | 0.0 | 0.0 | 0.00 | 0.00 | 0.00 | 75 | 1010.8 |
| 20260505051506 | 57 | 198 | 0.0 | 0.0 | 0.00 | 0.00 | 0.00 | 75 | 1010.8 |
| 20260505051005 | 58 | 198 | 0.0 | 0.0 | 0.00 | 0.00 | 0.00 | 74 | 1010.9 |
| 20260505050507 | 58 | 198 | 0.0 | 0.0 | 0.00 | 0.00 | 0.00 | 74 | 1010.9 |
| 20260505041526 | 60 | 198 | 0.0 | 1.0 | 0.00 | 0.00 | 0.00 | 67 | 1011.0 |
| 20260505041003 | 61 | 198 | 0.0 | 1.0 | 0.00 | 0.00 | 0.00 | 67 | 1011.0 |
| 20260505040506 | 61 | 198 | 0.0 | 0.0 | 0.00 | 0.00 | 0.00 | 67 | 1011.0 |
| 20260505040024 | 61 | 198 | 0.0 | 0.0 | 0.00 | 0.00 | 0.00 | 68 | 1011.1 |
| 20260505035508 | 61 | 198 | 0.0 | 0.0 | 0.00 | 0.00 | 0.00 | 66 | 1011.0 |
| 20260505035004 | 61 | 198 | 0.0 | 0.0 | 0.00 | 0.00 | 0.00 | 66 | 1011.1 |
| 20260505034523 | 62 | 198 | 0.0 | 0.0 | 0.00 | 0.00 | 0.00 | 66 | 1010.9 |
| 20260505034003 | 62 | 198 | 0.0 | 0.0 | 0.00 | 0.00 | 0.00 | 65 | 1011.0 |
| 20260505033504 | 62 | 198 | 0.0 | 0.0 | 0.00 | 0.00 | 0.00 | 65 | 1011.1 |
| 20260505033020 | 63 | 198 | 0.0 | 0.0 | 0.00 | 0.00 | 0.00 | 64 | 1011.0 |
| 20260505032512 | 63 | 198 | 0.0 | 0.0 | 0.00 | 0.00 | 0.00 | 63 | 1011.0 |
| 20260505032006 | 63 | 198 | 0.0 | 0.0 | 0.00 | 0.00 | 0.00 | 62 | 1011.1 |
| 20260505031518 | 63 | 198 | 0.0 | 0.0 | 0.00 | 0.00 | 0.00 | 61 | 1011.1 |
| 20260505031009 | 63 | 198 | 0.0 | 1.0 | 0.00 | 0.00 | 0.00 | 61 | 1011.1 |
| 20260505030511 | 64 | 198 | 0.0 | 2.0 | 0.00 | 0.00 | 0.00 | 61 | 1011.0 |
| 20260505030018 | 64 | 198 | 0.0 | 2.0 | 0.00 | 0.00 | 0.00 | 61 | 1011.0 |
| 20260505025509 | 64 | 201 | 0.0 | 0.0 | 0.00 | 0.00 | 0.00 | 60 | 1011.0 |
| 20260505025004 | 64 | 202 | 0.0 | 2.0 | 0.00 | 0.00 | 0.00 | 60 | 1010.9 |
| 20260505024512 | 64 | 202 | 0.0 | 2.0 | 0.00 | 0.00 | 0.00 | 59 | 1010.9 |
| 20260505024005 | 65 | 201 | 0.0 | 4.0 | 0.00 | 0.00 | 0.00 | 58 | 1010.9 |
| 20260505023504 | 65 | 207 | 0.0 | 4.0 | 0.00 | 0.00 | 0.00 | 58 | 1010.8 |
| 20260505023019 | 65 | 130 | 0.0 | 0.0 | 0.00 | 0.00 | 0.00 | 57 | 1010.8 |
| 20260505022505 | 65 | 130 | 0.0 | 0.0 | 0.00 | 0.00 | 0.00 | 57 | 1010.8 |
| 20260505022009 | 65 | 130 | 0.0 | 1.0 | 0.00 | 0.00 | 0.00 | 57 | 1010.9 |
| 20260505021526 | 66 | 130 | 0.0 | 9.0 | 0.00 | 0.00 | 0.00 | 56 | 1010.8 |
| 20260505021007 | 66 | 130 | 0.0 | 9.0 | 0.00 | 0.00 | 0.00 | 56 | 1010.8 |
| 20260505020505 | 66 | 217 | 0.0 | 4.0 | 0.00 | 0.00 | 0.00 | 55 | 1010.8 |
| 20260505020035 | 66 | 217 | 0.0 | 4.0 | 0.00 | 0.00 | 0.00 | 55 | 1010.8 |
| 20260505015508 | 66 | 254 | 0.0 | 4.0 | 0.00 | 0.00 | 0.00 | 55 | 1010.8 |
| 20260505015009 | 66 | 159 | 0.0 | 4.0 | 0.00 | 0.00 | 0.00 | 54 | 1010.7 |
| 20260505014521 | 66 | 165 | 0.0 | 4.0 | 0.00 | 0.00 | 0.00 | 54 | 1010.7 |
| 20260505014007 | 66 | 162 | 0.0 | 4.0 | 0.00 | 0.00 | 0.00 | 54 | 1010.6 |
| 20260505013503 | 66 | 138 | 0.0 | 4.0 | 0.00 | 0.00 | 0.00 | 54 | 1010.6 |
| 20260505013018 | 67 | 211 | 0.0 | 3.0 | 0.00 | 0.00 | 0.00 | 53 | 1010.5 |
| 20260505012508 | 67 | 180 | 0.0 | 1.0 | 0.00 | 0.00 | 0.00 | 52 | 1010.5 |
| 20260505012008 | 67 | 180 | 0.0 | 1.0 | 0.00 | 0.00 | 0.00 | 52 | 1010.4 |
| 20260505011518 | 67 | 181 | 0.0 | 0.0 | 0.00 | 0.00 | 0.00 | 52 | 1010.2 |
| 20260505011007 | 68 | 181 | 0.0 | 1.0 | 0.00 | 0.00 | 0.00 | 51 | 1010.2 |
| 20260505010507 | 68 | 181 | 0.0 | 2.0 | 0.00 | 0.00 | 0.00 | 51 | 1010.1 |
| 20260505010027 | 68 | 181 | 0.0 | 2.0 | 0.00 | 0.00 | 0.00 | 50 | 1010.0 |
| 20260505005504 | 68 | 180 | 0.0 | 2.0 | 0.00 | 0.00 | 0.00 | 50 | 1010.1 |
| 20260505005011 | 68 | 180 | 0.0 | 2.0 | 0.00 | 0.00 | 0.00 | 50 | 1010.0 |
| 20260505004528 | 69 | 182 | 0.0 | 5.0 | 0.00 | 0.00 | 0.00 | 50 | 1010.0 |
| 20260505004008 | 69 | 184 | 0.0 | 5.0 | 0.00 | 0.00 | 0.00 | 49 | 1010.0 |
| 20260505003512 | 69 | 251 | 0.0 | 3.0 | 0.00 | 0.00 | 0.00 | 49 | 1009.8 |
| 20260505003027 | 69 | 251 | 0.0 | 3.0 | 0.00 | 0.00 | 0.00 | 48 | 1009.7 |
| 20260505002503 | 69 | 259 | 0.0 | 3.0 | 0.00 | 0.00 | 0.00 | 48 | 1009.7 |
| 20260505002007 | 70 | 269 | 0.0 | 3.0 | 0.00 | 0.00 | 0.00 | 48 | 1009.6 |
| 20260505001520 | 70 | 275 | 0.0 | 2.0 | 0.00 | 0.00 | 0.00 | 48 | 1009.5 |
| 20260505001007 | 70 | 275 | 0.0 | 4.0 | 0.00 | 0.00 | 0.00 | 47 | 1009.5 |
| 20260505000507 | 70 | 287 | 0.0 | 4.0 | 0.00 | 0.00 | 0.00 | 47 | 1009.5 |
| 20260505000040 | 70 | 240 | 0.0 | 4.0 | 0.00 | 0.00 | 0.00 | 46 | 1009.5 |
| 20260504235508 | 70 | 180 | 0.0 | 3.0 | 0.00 | 0.00 | 0.00 | 46 | 1009.6 |
| 20260504235008 | 71 | 221 | 0.0 | 2.0 | 0.00 | 0.00 | 0.00 | 46 | 1009.6 |
| 20260504234525 | 71 | 244 | 0.0 | 2.0 | 0.00 | 0.00 | 0.00 | 44 | 1009.5 |
| 20260504234007 | 71 | 211 | 0.0 | 3.0 | 0.00 | 0.00 | 0.00 | 44 | 1009.5 |
| 20260504233508 | 71 | 205 | 0.0 | 5.0 | 0.00 | 0.00 | 0.00 | 44 | 1009.4 |
| 20260504233012 | 72 | 165 | 0.0 | 5.0 | 0.00 | 0.00 | 0.00 | 43 | 1009.3 |
| 20260504232503 | 72 | 211 | 0.0 | 4.0 | 0.00 | 0.00 | 0.00 | 43 | 1009.3 |
| 20260504232003 | 72 | 171 | 0.0 | 5.0 | 0.00 | 0.00 | 0.00 | 44 | 1009.4 |
| 20260504231516 | 72 | 167 | 0.0 | 6.0 | 0.00 | 0.00 | 0.00 | 44 | 1009.3 |
| 20260504231013 | 72 | 263 | 0.0 | 8.0 | 0.00 | 0.00 | 0.00 | 42 | 1009.3 |
| 20260504230503 | 72 | 253 | 1.0 | 9.0 | 0.00 | 0.00 | 0.00 | 43 | 1009.3 |
| 20260504230010 | 73 | 239 | 0.0 | 9.0 | 0.00 | 0.00 | 0.00 | 41 | 1009.3 |
| 20260504225500 | 73 | 329 | 1.0 | 5.0 | 0.00 | 0.00 | 0.00 | 41 | 1009.3 |
| 20260504225003 | 73 | 218 | 1.0 | 8.0 | 0.00 | 0.00 | 0.00 | 41 | 1009.3 |
| 20260504224505 | 73 | 206 | 1.0 | 8.0 | 0.00 | 0.00 | 0.00 | 40 | 1009.3 |
| 20260504224002 | 73 | 129 | 1.0 | 6.0 | 0.00 | 0.00 | 0.00 | 41 | 1009.3 |
| 20260504223501 | 73 | 238 | 1.0 | 12.0 | 0.00 | 0.00 | 0.00 | 40 | 1009.3 |
| 20260504223005 | 73 | 130 | 1.0 | 12.0 | 0.00 | 0.00 | 0.00 | 39 | 1009.3 |
| 20260504222504 | 74 | 185 | 2.0 | 11.0 | 0.00 | 0.00 | 0.00 | 40 | 1009.2 |
| 20260504222003 | 74 | 210 | 1.0 | 7.0 | 0.00 | 0.00 | 0.00 | 40 | 1009.2 |
| 20260504221504 | 74 | 220 | 0.0 | 6.0 | 0.00 | 0.00 | 0.00 | 39 | 1009.3 |
| 20260504221004 | 74 | 155 | 0.0 | 7.0 | 0.00 | 0.00 | 0.00 | 39 | 1009.4 |
| 20260504220504 | 74 | 151 | 1.0 | 9.0 | 0.00 | 0.00 | 0.00 | 39 | 1009.4 |
| 20260504220038 | 74 | 222 | 0.0 | 9.0 | 0.00 | 0.00 | 0.00 | 39 | 1009.3 |
| 20260504215506 | 74 | 200 | 0.0 | 10.0 | 0.00 | 0.00 | 0.00 | 39 | 1009.3 |
| 20260504215008 | 74 | 183 | 1.0 | 11.0 | 0.00 | 0.00 | 0.00 | 38 | 1009.2 |
| 20260504214504 | 74 | 178 | 1.0 | 11.0 | 0.00 | 0.00 | 0.00 | 38 | 1009.2 |
| 20260504214001 | 74 | 166 | 1.0 | 8.0 | 0.00 | 0.00 | 0.00 | 38 | 1009.3 |
| 20260504213501 | 74 | 255 | 2.0 | 8.0 | 0.00 | 0.00 | 0.00 | 37 | 1009.5 |
| 20260504213008 | 74 | 266 | 1.0 | 9.0 | 0.00 | 0.00 | 0.00 | 38 | 1009.4 |
| 20260504212505 | 74 | 148 | 1.0 | 9.0 | 0.00 | 0.00 | 0.00 | 38 | 1009.4 |
| 20260504212000 | 74 | 227 | 1.0 | 10.0 | 0.00 | 0.00 | 0.00 | 39 | 1009.3 |
| 20260504211512 | 74 | 271 | 2.0 | 10.0 | 0.00 | 0.00 | 0.00 | 38 | 1009.4 |
| 20260504211004 | 74 | 198 | 2.0 | 6.0 | 0.00 | 0.00 | 0.00 | 37 | 1009.4 |
| 20260504210502 | 75 | 236 | 0.0 | 11.0 | 0.00 | 0.00 | 0.00 | 37 | 1009.3 |
| 20260504210008 | 75 | 273 | 0.0 | 11.0 | 0.00 | 0.00 | 0.00 | 36 | 1009.3 |
| 20260504205504 | 75 | 213 | 1.0 | 13.0 | 0.00 | 0.00 | 0.00 | 36 | 1009.3 |
| 20260504205007 | 75 | 163 | 1.0 | 13.0 | 0.00 | 0.00 | 0.00 | 36 | 1009.3 |
| 20260504204507 | 75 | 140 | 0.0 | 10.0 | 0.00 | 0.00 | 0.00 | 37 | 1009.2 |
| 20260504204004 | 75 | 205 | 1.0 | 10.0 | 0.00 | 0.00 | 0.00 | 36 | 1009.3 |
| 20260504203504 | 75 | 111 | 2.0 | 9.0 | 0.00 | 0.00 | 0.00 | 37 | 1009.3 |
| 20260504203003 | 75 | 210 | 2.0 | 9.0 | 0.00 | 0.00 | 0.00 | 38 | 1009.2 |
| 20260504202501 | 75 | 207 | 2.0 | 9.0 | 0.00 | 0.00 | 0.00 | 37 | 1009.3 |
| 20260504202001 | 74 | 133 | 0.0 | 6.0 | 0.00 | 0.00 | 0.00 | 38 | 1009.4 |
| 20260504201509 | 75 | 169 | 0.0 | 6.0 | 0.00 | 0.00 | 0.00 | 38 | 1009.4 |
| 20260504201001 | 75 | 146 | 0.0 | 7.0 | 0.00 | 0.00 | 0.00 | 36 | 1009.5 |
| 20260504200504 | 75 | 160 | 1.0 | 18.0 | 0.00 | 0.00 | 0.00 | 37 | 1009.5 |
| 20260504200014 | 75 | 179 | 3.0 | 18.0 | 0.00 | 0.00 | 0.00 | 37 | 1009.5 |
| 20260504195504 | 75 | 198 | 0.0 | 13.0 | 0.00 | 0.00 | 0.00 | 37 | 1009.7 |
| 20260504195002 | 75 | 239 | 2.0 | 13.0 | 0.00 | 0.00 | 0.00 | 37 | 1009.7 |
| 20260504194515 | 75 | 265 | 1.0 | 11.0 | 0.00 | 0.00 | 0.00 | 35 | 1009.9 |
| 20260504194008 | 75 | 159 | 1.0 | 11.0 | 0.00 | 0.00 | 0.00 | 36 | 1010.0 |
| 20260504193502 | 75 | 122 | 0.0 | 9.0 | 0.00 | 0.00 | 0.00 | 37 | 1010.2 |
| 20260504193012 | 75 | 222 | 0.0 | 9.0 | 0.00 | 0.00 | 0.00 | 37 | 1010.3 |
| 20260504192506 | 74 | 165 | 1.0 | 8.0 | 0.00 | 0.00 | 0.00 | 37 | 1010.2 |
| 20260504192001 | 74 | 150 | 0.0 | 5.0 | 0.00 | 0.00 | 0.00 | 37 | 1010.3 |
| 20260504191507 | 74 | 160 | 0.0 | 7.0 | 0.00 | 0.00 | 0.00 | 37 | 1010.4 |
| 20260504191005 | 74 | 157 | 0.0 | 10.0 | 0.00 | 0.00 | 0.00 | 39 | 1010.5 |
| 20260504190504 | 74 | 186 | 0.0 | 10.0 | 0.00 | 0.00 | 0.00 | 37 | 1010.7 |
| 20260504190012 | 74 | 212 | 1.0 | 7.0 | 0.00 | 0.00 | 0.00 | 35 | 1010.8 |
| 20260504185505 | 74 | 199 | 1.0 | 7.0 | 0.00 | 0.00 | 0.00 | 36 | 1010.9 |
| 20260504185007 | 74 | 108 | 2.0 | 9.0 | 0.00 | 0.00 | 0.00 | 37 | 1010.9 |
| 20260504184516 | 74 | 227 | 0.0 | 9.0 | 0.00 | 0.00 | 0.00 | 36 | 1011.1 |
| 20260504184006 | 74 | 173 | 1.0 | 8.0 | 0.00 | 0.00 | 0.00 | 38 | 1011.2 |
| 20260504183506 | 73 | 126 | 2.0 | 10.0 | 0.00 | 0.00 | 0.00 | 39 | 1011.4 |
| 20260504183024 | 73 | 169 | 2.0 | 10.0 | 0.00 | 0.00 | 0.00 | 38 | 1011.3 |
| 20260504182503 | 73 | 198 | 2.0 | 8.0 | 0.00 | 0.00 | 0.00 | 37 | 1011.3 |
| 20260504182005 | 73 | 155 | 2.0 | 8.0 | 0.00 | 0.00 | 0.00 | 37 | 1011.4 |
| 20260504181522 | 73 | 194 | 2.0 | 12.0 | 0.00 | 0.00 | 0.00 | 37 | 1011.5 |
| 20260504181008 | 72 | 310 | 4.0 | 12.0 | 0.00 | 0.00 | 0.00 | 37 | 1011.5 |
| 20260504180504 | 72 | 137 | 1.0 | 9.0 | 0.00 | 0.00 | 0.00 | 39 | 1011.7 |
| 20260504180011 | 72 | 195 | 1.0 | 10.0 | 0.00 | 0.00 | 0.00 | 37 | 1011.9 |
| 20260504175504 | 72 | 229 | 2.0 | 10.0 | 0.00 | 0.00 | 0.00 | 38 | 1011.9 |
| 20260504175001 | 72 | 204 | 1.0 | 13.0 | 0.00 | 0.00 | 0.00 | 38 | 1011.9 |
| 20260504174515 | 72 | 211 | 1.0 | 13.0 | 0.00 | 0.00 | 0.00 | 38 | 1011.9 |
| 20260504174004 | 72 | 169 | 0.0 | 11.0 | 0.00 | 0.00 | 0.00 | 38 | 1011.9 |
| 20260504173504 | 72 | 121 | 1.0 | 9.0 | 0.00 | 0.00 | 0.00 | 38 | 1012.0 |
| 20260504173010 | 71 | 191 | 3.0 | 12.0 | 0.00 | 0.00 | 0.00 | 40 | 1012.1 |
| 20260504172504 | 71 | 169 | 3.0 | 12.0 | 0.00 | 0.00 | 0.00 | 39 | 1012.3 |
| 20260504172010 | 71 | 218 | 2.0 | 10.0 | 0.00 | 0.00 | 0.00 | 41 | 1012.3 |
| 20260504171526 | 71 | 255 | 5.0 | 10.0 | 0.00 | 0.00 | 0.00 | 39 | 1012.4 |
| 20260504171008 | 71 | 164 | 2.0 | 6.0 | 0.00 | 0.00 | 0.00 | 41 | 1012.5 |
| 20260504170508 | 71 | 267 | 1.0 | 7.0 | 0.00 | 0.00 | 0.00 | 41 | 1012.5 |
| 20260504151006 | 68 | 221 | 1.0 | 10.0 | 0.00 | 0.00 | 0.00 | 43 | 1014.0 |
| 20260504150504 | 67 | 244 | 2.0 | 10.0 | 0.00 | 0.00 | 0.00 | 41 | 1014.1 |
| 20260504141003 | 63 | 193 | 1.0 | 6.0 | 0.00 | 0.00 | 0.00 | 50 | 1014.1 |
| 20260504140503 | 62 | 187 | 0.0 | 6.0 | 0.00 | 0.00 | 0.00 | 51 | 1014.0 |
| 20260504130504 | 55 | 146 | 0.0 | 4.0 | 0.00 | 0.00 | 0.00 | 63 | 1014.4 |